{"data":{"norad_id":43812,"epoch":"2026-05-25T01:24:36.693792Z","epoch_age_seconds":80128,"freshness":"FRESH","line1":"1 43812U 18099BG  26145.05875803  .00003076  00000+0  20099-3 0  9997","line2":"2 43812  97.3571 182.5348 0004789 221.2702 138.8165 15.08511144408427","mean_motion":15.08511144,"eccentricity":0.0004789,"inclination_deg":97.3571,"raan_deg":182.5348,"arg_perigee_deg":221.2702,"mean_anomaly_deg":138.8165,"bstar":0.00020099,"rev_number":40842,"period_min":95.458360100786,"perigee_km":537.43529841205,"apogee_km":544.06220718608,"semimajor_km":6918.8857527991,"source":"CELESTRAK","updated_at":"2026-05-25T13:37:55.901474Z"}}